Powrót do katalogu

FENGYUN 1C DEB

AktywnySSO
NORAD 29820·DEBRIS·🇨🇳 China

Wystrzelony May 10, 1999 z Taiyuan Satellite Launch Center

Loading…

Następne Przeloty (najbliższe 24 godziny)

TLE

ŚwieżeSource: Space-Track

Epoka: Sep 14, 2026, 12:27 UTC

1 29820U 99025DN  26257.51916030  .00000177  00000-0  13853-3 0  9991
2 29820  98.8350 261.3698 0071714 187.4242 324.8750 14.02983455  4227

Śledź FENGYUN 1C DEB w czasie rzeczywistym z AllMySat

Download on the App Store